contact:dominique.lefevre@mio.osupytheas.fr, maurice.libes@osupytheas.fr, didier.mallarino@osupytheas.fr
Project:EMSO http://www.emso-fr.org/EMSO-France
Depth: 2436.0 m
Title:EMSO Ligure Ouest : Data MII capteur AQUADOPP
Date,Latitude,Longitude,X_East,Y_North,Z_Up,Amplitude_X,Amplitude_Y,Amplitude_Z,Batterie,SoundSpeed,Heading,Pitch,Roll,Pressure,TIS,Speed,Direction
, degrees North, degrees East, m.s-1, m.s-1,m.s-1, 1, 1, 1, Volt, m.s-1, degree, degree, degree, dbar, degree_C, m.s-1, degree
2021-05-02T00:04:03,42.805,6.029,0.059,-0.01,0.024,102.0,106.0,100.0,13.4,1505.1,326.3,-0.8,1.8,2469.15,13.27,0.059,99.6
2021-05-02T00:07:03,42.805,6.029,0.062,-0.015,0.001,102.0,107.0,101.0,13.4,1505.2,326.3,-0.7,1.8,2469.161,13.28,0.063,103.6
2021-05-02T00:10:03,42.805,6.029,0.066,-0.022,0.004,103.0,105.0,100.0,13.3,1505.2,326.1,-0.7,1.8,2469.17,13.28,0.069,108.4
2021-05-02T00:13:03,42.805,6.029,0.074,-0.007,0.031,102.0,105.0,100.0,13.4,1505.2,325.8,-0.8,1.8,2469.131,13.28,0.074,95.4
2021-05-02T00:16:03,42.805,6.029,0.062,0.007,0.013,100.0,106.0,100.0,13.4,1505.2,326.8,-0.7,1.8,2469.198,13.28,0.062,83.6
2021-05-02T00:19:03,42.805,6.029,0.073,-0.018,0.033,101.0,105.0,100.0,13.4,1505.2,326.3,-0.8,1.9,2469.165,13.28,0.075,103.8
2021-05-02T00:22:03,42.805,6.029,0.039,-0.024,-0.001,102.0,105.0,100.0,13.4,1505.2,326.0,-0.7,1.8,2469.142,13.28,0.045,121.6
2021-05-02T00:25:03,42.805,6.029,0.056,0.009,0.063,101.0,106.0,101.0,13.4,1505.2,326.3,-0.8,1.8,2469.118,13.28,0.056,80.9
2021-05-02T00:28:03,42.805,6.029,0.051,-0.012,0.012,101.0,105.0,101.0,13.3,1505.2,325.0,-0.8,1.8,2469.15,13.28,0.052,103.2
2021-05-02T00:31:03,42.805,6.029,0.075,-0.012,0.044,101.0,104.0,101.0,13.4,1505.2,327.4,-0.8,1.8,2469.128,13.28,0.075,99.1
2021-05-02T00:34:03,42.805,6.029,0.068,-0.017,0.029,101.0,104.0,101.0,13.3,1505.2,328.5,-0.8,1.8,2469.15,13.28,0.07,104.0
2021-05-02T00:37:03,42.805,6.029,0.041,-0.007,0.026,101.0,106.0,102.0,13.4,1505.2,327.7,-0.8,1.8,2469.127,13.28,0.041,99.7
2021-05-02T00:40:03,42.805,6.029,0.074,-0.021,0.039,102.0,106.0,100.0,13.3,1505.2,327.3,-0.7,1.8,2469.179,13.28,0.076,105.8
2021-05-02T00:43:03,42.805,6.029,0.06,-0.017,-0.012,102.0,104.0,101.0,13.4,1505.2,325.6,-0.8,1.9,2469.118,13.28,0.062,105.8
2021-05-02T00:46:03,42.805,6.029,0.079,-0.027,0.025,104.0,105.0,102.0,13.4,1505.2,327.8,-0.8,1.9,2469.122,13.28,0.083,108.9
2021-05-02T00:49:03,42.805,6.029,0.071,-0.026,0.012,100.0,103.0,100.0,13.4,1505.2,327.2,-0.7,1.8,2469.186,13.28,0.075,110.1
2021-05-02T00:52:03,42.805,6.029,0.067,-0.011,0.026,102.0,103.0,101.0,13.4,1505.2,327.7,-0.8,1.8,2469.167,13.28,0.067,99.3
2021-05-02T00:55:03,42.805,6.029,0.077,-0.013,0.04,104.0,107.0,101.0,13.3,1505.2,324.0,-0.8,1.8,2469.176,13.28,0.078,99.6
2021-05-02T00:58:03,42.805,6.029,0.057,0.019,0.094,101.0,105.0,101.0,13.3,1505.2,325.8,-0.8,1.8,2469.119,13.28,0.06,71.6
2021-05-02T01:04:03,42.805,6.029,0.079,-0.028,0.035,101.0,103.0,101.0,13.4,1505.2,327.0,-0.8,1.8,2469.208,13.28,0.083,109.5
2021-05-02T01:07:03,42.805,6.029,0.079,-0.024,0.022,101.0,105.0,101.0,13.4,1505.2,327.2,-0.8,1.8,2469.189,13.28,0.082,106.9
2021-05-02T01:10:03,42.805,6.029,0.05,-0.026,0.028,102.0,104.0,100.0,13.4,1505.2,328.1,-0.7,1.8,2469.125,13.28,0.056,117.5
2021-05-02T01:13:03,42.805,6.029,0.081,-0.014,0.069,100.0,104.0,102.0,13.4,1505.2,327.3,-0.8,1.8,2469.166,13.28,0.082,99.8
2021-05-02T01:16:03,42.805,6.029,0.044,-0.029,0.003,102.0,106.0,101.0,13.4,1505.2,327.9,-0.7,1.8,2469.147,13.28,0.052,123.4
2021-05-02T01:19:03,42.805,6.029,0.05,-0.008,0.021,101.0,105.0,100.0,13.4,1505.2,325.8,-0.8,1.8,2469.158,13.28,0.05,99.1
2021-05-02T01:22:03,42.805,6.029,0.029,-0.019,0.008,101.0,104.0,100.0,13.4,1505.2,325.8,-0.7,1.9,2469.139,13.28,0.034,123.2
2021-05-02T01:25:03,42.805,6.029,0.042,-0.002,0.032,101.0,104.0,101.0,13.4,1505.2,325.3,-0.7,1.8,2469.152,13.28,0.042,92.7
2021-05-02T01:28:03,42.805,6.029,0.077,-0.022,0.039,102.0,103.0,101.0,13.4,1505.2,326.1,-0.7,1.8,2469.13,13.28,0.08,105.9
2021-05-02T01:31:03,42.805,6.029,0.106,-0.018,0.05,102.0,104.0,100.0,13.4,1505.2,327.5,-0.8,1.8,2469.179,13.28,0.107,99.6
2021-05-02T01:34:03,42.805,6.029,0.066,-0.006,0.04,102.0,103.0,101.0,13.4,1505.2,323.9,-0.8,1.8,2469.115,13.28,0.066,95.2
2021-05-02T01:37:03,42.805,6.029,0.056,-0.018,0.026,104.0,103.0,99.0,13.4,1505.2,326.8,-0.8,1.9,2469.151,13.28,0.058,107.8
2021-05-02T01:40:03,42.805,6.029,0.043,-0.017,0.024,103.0,103.0,101.0,13.4,1505.2,324.0,-0.8,1.8,2469.13,13.28,0.046,111.6
2021-05-02T01:43:03,42.805,6.029,0.084,-0.016,0.044,101.0,106.0,101.0,13.3,1505.2,324.0,-0.8,1.8,2469.128,13.28,0.085,100.8
2021-05-02T01:46:03,42.805,6.029,0.064,-0.013,0.01,101.0,104.0,101.0,13.3,1505.2,327.1,-0.7,1.8,2469.171,13.28,0.065,101.5
2021-05-02T01:49:03,42.805,6.029,0.076,-0.033,-0.001,102.0,103.0,100.0,13.4,1505.2,325.6,-0.8,1.8,2469.147,13.28,0.082,113.5
2021-05-02T01:52:03,42.805,6.029,0.077,-0.031,0.035,101.0,105.0,101.0,13.3,1505.2,327.5,-0.8,1.8,2469.176,13.28,0.083,111.9
2021-05-02T01:55:03,42.805,6.029,0.054,-0.035,0.039,101.0,103.0,101.0,13.3,1505.2,327.7,-0.8,1.8,2469.206,13.28,0.064,123.0
2021-05-02T01:58:03,42.805,6.029,0.06,-0.02,0.033,102.0,106.0,100.0,13.3,1505.2,324.5,-0.8,1.8,2469.164,13.28,0.063,108.4
2021-05-02T02:04:03,42.805,6.029,0.063,-0.039,0.023,101.0,105.0,101.0,13.4,1505.2,326.4,-0.8,1.8,2469.196,13.28,0.074,121.8
2021-05-02T02:07:03,42.805,6.029,0.057,-0.006,0.021,102.0,104.0,102.0,13.3,1505.2,325.5,-0.8,1.8,2469.201,13.28,0.057,96.0
2021-05-02T02:10:03,42.805,6.029,0.078,-0.023,0.022,102.0,102.0,101.0,13.4,1505.2,325.3,-0.8,1.8,2469.15,13.28,0.081,106.4
2021-05-02T02:13:03,42.805,6.029,0.071,-0.025,0.045,102.0,103.0,101.0,13.4,1505.2,326.4,-0.7,1.8,2469.17,13.28,0.075,109.4
2021-05-02T02:16:03,42.805,6.029,0.046,-0.017,0.024,100.0,104.0,102.0,13.4,1505.2,326.6,-0.8,1.8,2469.168,13.28,0.049,110.3
2021-05-02T02:19:03,42.805,6.029,0.042,-0.027,0.003,102.0,103.0,101.0,13.4,1505.2,325.6,-0.7,1.8,2469.157,13.28,0.049,122.7
2021-05-02T02:22:03,42.805,6.029,0.014,-0.009,0.024,102.0,103.0,101.0,13.3,1505.2,325.4,-0.7,1.8,2469.125,13.28,0.016,122.7
2021-05-02T02:25:03,42.805,6.029,0.079,-0.022,0.032,103.0,105.0,101.0,13.4,1505.2,328.0,-0.7,1.8,2469.176,13.28,0.082,105.6
2021-05-02T02:28:03,42.805,6.029,0.064,-0.009,0.034,102.0,104.0,101.0,13.4,1505.2,324.5,-0.8,1.8,2469.152,13.28,0.064,98.0
2021-05-02T02:31:03,42.805,6.029,0.06,-0.009,0.024,102.0,104.0,101.0,13.4,1505.2,327.3,-0.8,1.8,2469.162,13.28,0.06,98.5
2021-05-02T02:34:03,42.805,6.029,0.067,-0.01,0.026,102.0,103.0,101.0,13.4,1505.2,325.3,-0.7,1.8,2469.158,13.28,0.067,98.5
2021-05-02T02:37:03,42.805,6.029,0.063,-0.013,0.044,102.0,106.0,100.0,13.4,1505.2,324.9,-0.8,1.8,2469.177,13.28,0.064,101.7
2021-05-02T02:40:03,42.805,6.029,0.06,-0.031,0.017,103.0,105.0,102.0,13.4,1505.2,327.0,-0.8,1.8,2469.148,13.28,0.067,117.3
2021-05-02T02:43:03,42.805,6.029,0.066,-0.017,0.044,102.0,104.0,101.0,13.4,1505.2,326.8,-0.8,1.8,2469.174,13.28,0.068,104.4
2021-05-02T02:46:03,42.805,6.029,0.051,-0.028,0.017,101.0,104.0,102.0,13.4,1505.2,328.1,-0.8,1.8,2469.176,13.28,0.058,118.8
2021-05-02T02:49:03,42.805,6.029,0.037,-0.015,0.04,102.0,104.0,101.0,13.4,1505.2,326.1,-0.8,1.9,2469.201,13.28,0.039,112.1
2021-05-02T02:52:03,42.805,6.029,0.082,-0.018,0.067,103.0,102.0,102.0,13.4,1505.2,326.0,-0.7,1.8,2469.172,13.28,0.083,102.4
2021-05-02T02:55:03,42.805,6.029,0.063,-0.022,0.013,101.0,105.0,102.0,13.3,1505.2,326.8,-0.8,1.8,2469.14,13.28,0.066,109.2
2021-05-02T02:58:03,42.805,6.029,0.046,-0.014,0.021,102.0,103.0,101.0,13.3,1505.2,324.4,-0.7,1.8,2469.146,13.28,0.048,106.9
2021-05-02T03:04:03,42.805,6.029,0.071,-0.027,0.023,103.0,105.0,100.0,13.4,1505.2,327.3,-0.7,1.8,2469.199,13.28,0.075,110.8
2021-05-02T03:07:03,42.805,6.029,0.049,-0.022,0.006,102.0,104.0,101.0,13.4,1505.2,326.0,-0.7,1.8,2469.151,13.28,0.053,114.2
2021-05-02T03:10:03,42.805,6.029,0.043,-0.026,0.02,104.0,105.0,101.0,13.4,1505.2,328.6,-0.8,1.8,2469.186,13.28,0.05,121.2
2021-05-02T03:13:03,42.805,6.029,0.047,-0.011,0.0,102.0,105.0,101.0,13.3,1505.2,324.2,-0.7,1.8,2469.156,13.28,0.048,103.2
2021-05-02T03:16:03,42.805,6.029,0.043,-0.025,0.016,102.0,104.0,101.0,13.3,1505.2,327.6,-0.7,1.8,2469.182,13.28,0.049,120.2
2021-05-02T03:19:03,42.805,6.029,0.059,-0.008,0.034,103.0,104.0,102.0,13.3,1505.2,327.5,-0.8,1.8,2469.211,13.28,0.059,97.7
2021-05-02T03:22:03,42.805,6.029,0.081,-0.026,0.054,102.0,104.0,101.0,13.3,1505.2,328.2,-0.8,1.8,2469.159,13.28,0.085,107.8
2021-05-02T03:25:03,42.805,6.029,0.065,-0.029,0.032,103.0,104.0,101.0,13.4,1505.2,329.1,-0.8,1.8,2469.161,13.28,0.071,114.0
2021-05-02T03:28:03,42.805,6.029,0.039,-0.013,0.026,103.0,105.0,102.0,13.4,1505.2,324.3,-0.7,1.9,2469.157,13.28,0.041,108.4
2021-05-02T03:31:04,42.805,6.029,0.059,-0.037,0.033,103.0,104.0,102.0,13.3,1505.2,327.5,-0.8,1.8,2469.139,13.28,0.069,122.1
2021-05-02T03:34:02,42.805,6.029,0.056,-0.014,-0.022,103.0,103.0,103.0,13.4,1505.2,326.8,-0.8,1.8,2469.177,13.28,0.057,104.0
2021-05-02T03:37:03,42.805,6.029,0.066,-0.033,0.043,102.0,103.0,101.0,13.3,1505.2,328.4,-0.8,1.8,2469.174,13.28,0.073,116.6
2021-05-02T03:40:03,42.805,6.029,0.046,-0.012,0.023,103.0,102.0,102.0,13.3,1505.2,327.1,-0.7,1.8,2469.162,13.28,0.047,104.6
2021-05-02T03:43:03,42.805,6.029,0.01,-0.009,-0.002,103.0,105.0,101.0,13.4,1505.2,327.1,-0.8,1.8,2469.193,13.28,0.013,132.0
2021-05-02T03:46:03,42.805,6.029,0.075,-0.017,0.048,102.0,106.0,102.0,13.4,1505.2,328.2,-0.7,1.8,2469.132,13.28,0.076,102.8
2021-05-02T03:49:03,42.805,6.029,0.049,-0.024,0.008,103.0,104.0,101.0,13.4,1505.2,326.5,-0.8,1.8,2469.168,13.28,0.054,116.1
2021-05-02T03:52:03,42.805,6.029,0.05,-0.018,0.017,103.0,105.0,102.0,13.4,1505.2,324.9,-0.8,1.8,2469.196,13.28,0.053,109.8
2021-05-02T03:55:03,42.805,6.029,0.082,-0.032,0.013,104.0,105.0,101.0,13.4,1505.2,327.0,-0.8,1.8,2469.186,13.28,0.088,111.3
2021-05-02T03:58:03,42.805,6.029,0.076,0.0,0.044,102.0,105.0,101.0,13.4,1505.2,325.7,-0.8,1.8,2469.147,13.28,0.075,90.0
2021-05-02T04:04:03,42.805,6.029,0.064,-0.02,0.05,102.0,105.0,102.0,13.4,1505.2,326.5,-0.7,1.8,2469.191,13.28,0.067,107.4
2021-05-02T04:07:03,42.805,6.029,0.053,-0.036,0.011,103.0,103.0,102.0,13.4,1505.2,326.8,-0.8,1.8,2469.164,13.28,0.064,124.2
2021-05-02T04:10:03,42.805,6.029,0.066,-0.02,0.028,103.0,103.0,103.0,13.3,1505.2,326.5,-0.8,1.8,2469.164,13.28,0.068,106.9
2021-05-02T04:13:03,42.805,6.029,0.048,-0.009,0.017,103.0,105.0,101.0,13.4,1505.2,324.3,-0.8,1.8,2469.182,13.28,0.048,100.6
2021-05-02T04:16:03,42.805,6.029,0.042,-0.026,0.015,101.0,104.0,101.0,13.4,1505.2,327.2,-0.8,1.8,2469.153,13.28,0.049,121.8
2021-05-02T04:19:03,42.805,6.029,0.045,-0.029,0.008,103.0,104.0,101.0,13.4,1505.2,325.7,-0.7,1.8,2469.154,13.28,0.053,122.8
2021-05-02T04:22:03,42.805,6.029,0.06,-0.018,0.028,103.0,103.0,102.0,13.4,1505.2,328.7,-0.8,1.8,2469.151,13.28,0.062,106.7
2021-05-02T04:25:03,42.805,6.029,0.061,-0.031,0.002,102.0,104.0,101.0,13.4,1505.2,328.8,-0.8,1.8,2469.179,13.28,0.068,116.9
2021-05-02T04:28:03,42.805,6.029,0.077,-0.043,0.022,103.0,104.0,102.0,13.4,1505.2,328.1,-0.8,1.8,2469.155,13.28,0.088,119.2
2021-05-02T04:31:03,42.805,6.029,0.062,-0.028,0.006,103.0,107.0,100.0,13.4,1505.2,327.8,-0.8,1.8,2469.155,13.28,0.068,114.3
2021-05-02T04:34:03,42.805,6.029,0.076,-0.028,-0.011,102.0,106.0,101.0,13.4,1505.2,326.7,-0.7,1.8,2469.143,13.28,0.08,110.2
2021-05-02T04:37:03,42.805,6.029,0.05,-0.036,0.003,102.0,104.0,102.0,13.3,1505.2,329.4,-0.7,1.8,2469.156,13.28,0.061,125.8
2021-05-02T04:40:03,42.805,6.029,0.054,0.001,0.021,103.0,103.0,102.0,13.3,1505.2,324.0,-0.8,1.8,2469.155,13.28,0.054,88.9
2021-05-02T04:43:03,42.805,6.029,0.059,-0.02,0.012,103.0,104.0,101.0,13.4,1505.2,327.5,-0.7,1.8,2469.115,13.28,0.062,108.7
2021-05-02T04:46:03,42.805,6.029,0.069,-0.019,0.042,104.0,103.0,101.0,13.4,1505.2,326.5,-0.7,1.8,2469.152,13.28,0.071,105.4
2021-05-02T04:49:03,42.805,6.029,0.023,-0.032,0.0,103.0,104.0,102.0,13.4,1505.2,324.9,-0.8,1.8,2469.119,13.28,0.039,144.3
2021-05-02T04:52:03,42.805,6.029,0.04,-0.016,0.021,102.0,105.0,100.0,13.4,1505.2,327.6,-0.7,1.8,2469.172,13.28,0.043,111.8
2021-05-02T04:55:03,42.805,6.029,0.057,-0.019,0.03,102.0,104.0,101.0,13.4,1505.2,327.4,-0.8,1.8,2469.125,13.28,0.06,108.4
2021-05-02T04:58:03,42.805,6.029,0.043,-0.009,-0.002,101.0,105.0,102.0,13.4,1505.2,327.0,-0.8,1.8,2469.165,13.28,0.043,101.8
2021-05-02T05:04:03,42.805,6.029,0.029,-0.02,0.017,103.0,106.0,100.0,13.4,1505.2,326.0,-0.7,1.8,2469.173,13.28,0.035,124.6
2021-05-02T05:07:03,42.805,6.029,0.064,-0.041,-0.015,103.0,103.0,101.0,13.4,1505.2,327.9,-0.8,1.8,2469.169,13.28,0.076,122.6
2021-05-02T05:10:03,42.805,6.029,0.066,-0.041,0.023,103.0,103.0,102.0,13.4,1505.2,328.8,-0.8,1.8,2469.159,13.28,0.077,121.8
2021-05-02T05:13:03,42.805,6.029,0.052,-0.016,0.01,104.0,103.0,101.0,13.4,1505.2,324.7,-0.8,1.8,2469.12,13.28,0.054,107.1
2021-05-02T05:16:03,42.805,6.029,0.046,-0.034,0.012,102.0,106.0,101.0,13.4,1505.2,325.9,-0.8,1.8,2469.17,13.28,0.057,126.5
2021-05-02T05:19:03,42.805,6.029,0.035,-0.012,0.019,103.0,105.0,101.0,13.4,1505.2,327.9,-0.8,1.9,2469.123,13.28,0.037,108.9
2021-05-02T05:22:03,42.805,6.029,0.065,-0.01,0.049,103.0,103.0,101.0,13.4,1505.2,325.5,-0.7,1.9,2469.124,13.28,0.065,98.7
2021-05-02T05:25:03,42.805,6.029,0.034,-0.027,0.015,102.0,104.0,101.0,13.3,1505.2,328.4,-0.8,1.8,2469.138,13.28,0.043,128.5
2021-05-02T05:28:03,42.805,6.029,0.055,-0.018,0.019,102.0,106.0,101.0,13.4,1505.2,328.3,-0.8,1.8,2469.161,13.28,0.057,108.1
2021-05-02T05:31:03,42.805,6.029,0.05,-0.024,0.011,103.0,104.0,102.0,13.4,1505.2,328.6,-0.7,1.8,2469.173,13.28,0.055,115.6
2021-05-02T05:34:03,42.805,6.029,0.021,-0.009,0.01,103.0,105.0,102.0,13.4,1505.2,326.3,-0.7,1.8,2469.157,13.28,0.022,113.2
2021-05-02T05:37:03,42.805,6.029,0.088,-0.034,0.027,103.0,105.0,100.0,13.4,1505.2,325.7,-0.7,1.8,2469.131,13.28,0.094,111.1
2021-05-02T05:40:03,42.805,6.029,0.039,-0.015,0.011,103.0,105.0,101.0,13.4,1505.2,325.5,-0.8,1.8,2469.115,13.28,0.041,111.0
2021-05-02T05:43:03,42.805,6.029,0.055,-0.015,0.023,103.0,103.0,102.0,13.4,1505.2,326.8,-0.8,1.9,2469.116,13.28,0.057,105.3
2021-05-02T05:46:03,42.805,6.029,0.03,-0.01,0.039,102.0,104.0,101.0,13.4,1505.2,326.9,-0.7,1.8,2469.134,13.28,0.031,108.4
2021-05-02T05:49:03,42.805,6.029,0.04,-0.026,0.034,104.0,105.0,102.0,13.4,1505.2,327.6,-0.7,1.8,2469.135,13.28,0.047,123.0
2021-05-02T05:52:03,42.805,6.029,0.065,-0.04,-0.015,103.0,105.0,101.0,13.4,1505.2,327.7,-0.8,1.8,2469.153,13.28,0.076,121.6
2021-05-02T05:55:03,42.805,6.029,0.043,-0.008,0.031,102.0,104.0,101.0,13.4,1505.2,328.6,-0.7,1.9,2469.13,13.28,0.043,100.5
2021-05-02T05:58:03,42.805,6.029,0.044,-0.034,0.006,104.0,105.0,101.0,13.3,1505.2,329.2,-0.7,1.8,2469.165,13.28,0.055,127.7
2021-05-02T06:04:03,42.805,6.029,0.041,-0.033,0.031,102.0,105.0,101.0,13.4,1505.2,327.5,-0.8,1.9,2469.181,13.28,0.052,128.8
2021-05-02T06:07:03,42.805,6.029,0.038,-0.007,0.007,102.0,106.0,101.0,13.4,1505.2,327.1,-0.8,1.8,2469.158,13.28,0.038,100.4
2021-05-02T06:10:03,42.805,6.029,0.055,-0.03,0.001,102.0,105.0,102.0,13.4,1505.2,327.1,-0.7,1.8,2469.115,13.28,0.062,118.6
2021-05-02T06:13:03,42.805,6.029,0.033,-0.025,0.022,103.0,104.0,100.0,13.3,1505.2,326.7,-0.8,1.8,2469.139,13.28,0.041,127.1
2021-05-02T06:16:03,42.805,6.029,0.036,-0.034,-0.005,103.0,104.0,102.0,13.4,1505.2,325.5,-0.8,1.8,2469.153,13.28,0.049,133.4
2021-05-02T06:19:03,42.805,6.029,0.055,-0.032,0.043,104.0,104.0,102.0,13.3,1505.2,327.4,-0.8,1.8,2469.138,13.28,0.063,120.2
2021-05-02T06:22:03,42.805,6.029,0.061,-0.019,0.031,103.0,105.0,103.0,13.4,1505.2,329.4,-0.7,1.8,2469.151,13.28,0.063,107.3
2021-05-02T06:25:03,42.805,6.029,0.044,-0.024,0.013,105.0,106.0,102.0,13.3,1505.2,326.4,-0.8,1.8,2469.16,13.28,0.05,118.6
2021-05-02T06:28:03,42.805,6.029,0.048,-0.018,0.017,104.0,105.0,102.0,13.3,1505.2,327.8,-0.8,1.8,2469.129,13.28,0.051,110.6
2021-05-02T06:31:03,42.805,6.029,0.047,-0.017,0.025,102.0,107.0,102.0,13.3,1505.2,325.6,-0.7,1.8,2469.16,13.28,0.049,109.9
2021-05-02T06:34:03,42.805,6.029,0.049,-0.004,0.052,103.0,106.0,102.0,13.4,1505.2,327.2,-0.8,1.8,2469.153,13.28,0.049,94.7
2021-05-02T06:37:03,42.805,6.029,0.032,-0.012,0.016,103.0,106.0,101.0,13.3,1505.2,328.3,-0.8,1.8,2469.199,13.28,0.034,110.6
2021-05-02T06:40:03,42.805,6.029,0.062,-0.01,0.045,105.0,106.0,102.0,13.3,1505.2,323.8,-0.8,1.8,2469.154,13.28,0.062,99.2
2021-05-02T06:43:03,42.805,6.029,0.031,-0.014,-0.011,104.0,104.0,101.0,13.3,1505.2,325.4,-0.8,1.9,2469.157,13.28,0.034,114.3
2021-05-02T06:46:03,42.805,6.029,0.033,-0.026,0.001,103.0,106.0,102.0,13.3,1505.2,327.0,-0.8,1.8,2469.146,13.28,0.042,128.2
2021-05-02T06:49:03,42.805,6.029,0.055,-0.033,0.04,103.0,105.0,102.0,13.4,1505.2,328.1,-0.7,1.8,2469.148,13.28,0.064,121.0
2021-05-02T06:52:03,42.805,6.029,0.039,-0.04,0.008,104.0,106.0,101.0,13.3,1505.2,326.0,-0.7,1.9,2469.195,13.28,0.055,135.7
2021-05-02T06:55:03,42.805,6.029,0.024,-0.021,0.018,105.0,105.0,102.0,13.4,1505.2,326.5,-0.8,1.8,2469.149,13.28,0.031,131.2
2021-05-02T06:58:03,42.805,6.029,0.056,-0.029,-0.002,105.0,104.0,101.0,13.4,1505.2,326.7,-0.7,1.8,2469.146,13.28,0.063,117.4
2021-05-02T07:04:03,42.805,6.029,0.056,-0.027,-0.021,104.0,104.0,102.0,13.4,1505.2,325.0,-0.7,1.8,2469.164,13.28,0.062,115.7
2021-05-02T07:07:03,42.805,6.029,0.04,-0.009,0.002,103.0,106.0,101.0,13.4,1505.2,324.1,-0.8,1.8,2469.192,13.28,0.041,102.7
2021-05-02T07:10:03,42.805,6.029,0.038,-0.013,-0.006,103.0,106.0,102.0,13.4,1505.2,325.2,-0.8,1.8,2469.166,13.28,0.04,108.9
2021-05-02T07:13:03,42.805,6.029,0.057,-0.003,0.041,103.0,107.0,101.0,13.3,1505.2,325.0,-0.7,1.8,2469.191,13.28,0.057,93.0
2021-05-02T07:16:03,42.805,6.029,0.058,-0.028,0.03,104.0,105.0,102.0,13.4,1505.2,328.1,-0.8,1.9,2469.177,13.28,0.064,115.8
2021-05-02T07:19:03,42.805,6.029,0.066,-0.012,0.024,104.0,105.0,101.0,13.4,1505.2,327.7,-0.7,1.8,2469.193,13.28,0.067,100.3
2021-05-02T07:22:03,42.805,6.029,0.036,-0.027,0.014,105.0,104.0,102.0,13.4,1505.2,329.3,-0.7,1.8,2469.19,13.28,0.045,126.9
2021-05-02T07:25:03,42.805,6.029,0.057,-0.048,0.035,104.0,105.0,102.0,13.4,1505.2,324.2,-0.8,1.8,2469.211,13.28,0.074,130.1
2021-05-02T07:28:03,42.805,6.029,0.042,-0.024,0.023,104.0,105.0,101.0,13.4,1505.2,325.1,-0.8,1.8,2469.206,13.28,0.048,119.7
2021-05-02T07:31:03,42.805,6.029,0.039,-0.023,0.031,103.0,106.0,102.0,13.4,1505.2,328.9,-0.7,1.8,2469.166,13.28,0.045,120.5
2021-05-02T07:34:03,42.805,6.029,0.021,-0.035,-0.001,103.0,106.0,102.0,13.4,1505.2,328.8,-0.8,1.8,2469.193,13.28,0.04,149.0
2021-05-02T07:37:03,42.805,6.029,0.046,-0.026,0.046,103.0,105.0,102.0,13.3,1505.2,325.0,-0.8,1.8,2469.245,13.28,0.052,119.5
2021-05-02T07:40:03,42.805,6.029,0.04,-0.019,0.016,104.0,107.0,102.0,13.4,1505.2,325.5,-0.8,1.8,2469.21,13.28,0.044,115.4
2021-05-02T07:43:03,42.805,6.029,0.037,-0.011,0.011,104.0,106.0,102.0,13.4,1505.2,324.4,-0.7,1.8,2469.207,13.28,0.038,106.6
2021-05-02T07:46:03,42.805,6.029,0.051,-0.02,0.013,104.0,106.0,101.0,13.4,1505.2,324.8,-0.8,1.8,2469.212,13.28,0.054,111.4
2021-05-02T07:49:03,42.805,6.029,0.02,-0.028,-0.032,104.0,105.0,101.0,13.3,1505.2,328.7,-0.7,1.8,2469.169,13.28,0.034,144.5
2021-05-02T07:52:03,42.805,6.029,0.037,-0.018,0.034,103.0,106.0,102.0,13.4,1505.2,324.7,-0.7,1.8,2469.26,13.28,0.041,115.9
2021-05-02T07:55:03,42.805,6.029,0.039,-0.023,0.047,104.0,104.0,103.0,13.4,1505.2,324.5,-0.8,1.8,2469.19,13.28,0.045,120.5
2021-05-02T07:58:03,42.805,6.029,0.056,-0.041,0.023,103.0,105.0,101.0,13.3,1505.2,328.2,-0.7,1.9,2469.237,13.28,0.069,126.2
2021-05-02T08:04:03,42.805,6.029,0.023,-0.03,-0.022,103.0,105.0,102.0,13.4,1505.2,325.3,-0.8,1.8,2469.238,13.28,0.037,142.5
2021-05-02T08:07:03,42.805,6.029,0.035,-0.008,-0.012,103.0,105.0,102.0,13.3,1505.2,325.7,-0.8,1.8,2469.233,13.28,0.035,102.9
2021-05-02T08:10:03,42.805,6.029,0.042,-0.026,-0.002,104.0,105.0,102.0,13.3,1505.2,325.4,-0.8,1.8,2469.24,13.28,0.049,121.8
2021-05-02T08:13:03,42.805,6.029,0.03,-0.01,0.023,104.0,104.0,102.0,13.4,1505.2,329.2,-0.8,1.8,2469.234,13.28,0.031,108.4
2021-05-02T08:16:03,42.805,6.029,0.049,-0.013,-0.003,104.0,105.0,103.0,13.4,1505.2,325.7,-0.8,1.8,2469.256,13.28,0.05,104.9
2021-05-02T08:19:03,42.805,6.029,0.054,-0.007,0.017,104.0,105.0,103.0,13.3,1505.2,325.2,-0.8,1.8,2469.229,13.28,0.054,97.4
2021-05-02T08:22:03,42.805,6.029,0.058,-0.039,0.009,104.0,105.0,102.0,13.3,1505.2,325.3,-0.7,1.8,2469.296,13.28,0.069,123.9
2021-05-02T08:25:03,42.805,6.029,0.037,-0.036,0.0,104.0,105.0,102.0,13.4,1505.2,328.1,-0.7,1.8,2469.275,13.28,0.051,134.2
2021-05-02T08:28:03,42.805,6.029,0.051,-0.009,0.005,104.0,104.0,102.0,13.4,1505.2,326.1,-0.7,1.8,2469.25,13.28,0.051,100.0
2021-05-02T08:31:03,42.805,6.029,0.052,-0.019,0.051,105.0,106.0,102.0,13.4,1505.2,327.1,-0.7,1.8,2469.265,13.28,0.055,110.1
2021-05-02T08:34:03,42.805,6.029,0.011,-0.03,-0.021,104.0,105.0,101.0,13.4,1505.2,329.0,-0.7,1.8,2469.283,13.28,0.031,159.9
2021-05-02T08:37:03,42.805,6.029,0.048,-0.02,-0.002,103.0,106.0,103.0,13.4,1505.2,327.8,-0.8,1.8,2469.271,13.28,0.052,112.6
2021-05-02T08:40:03,42.805,6.029,0.047,-0.02,0.0,104.0,104.0,102.0,13.3,1505.2,327.8,-0.8,1.8,2469.265,13.28,0.051,113.0
2021-05-02T08:43:03,42.805,6.029,0.056,-0.003,0.021,104.0,105.0,101.0,13.3,1505.2,325.2,-0.7,1.9,2469.247,13.28,0.056,93.1
2021-05-02T08:46:03,42.805,6.029,0.03,-0.026,-0.008,104.0,106.0,102.0,13.3,1505.2,327.5,-0.8,1.8,2469.286,13.28,0.039,130.9
2021-05-02T08:49:03,42.805,6.029,0.035,-0.028,-0.012,104.0,105.0,101.0,13.4,1505.2,325.8,-0.7,1.8,2469.266,13.28,0.044,128.7
2021-05-02T08:52:03,42.805,6.029,0.039,-0.001,0.021,104.0,105.0,102.0,13.3,1505.2,327.3,-0.8,1.8,2469.282,13.28,0.039,91.5
2021-05-02T08:55:03,42.805,6.029,0.073,-0.005,0.038,104.0,105.0,101.0,13.4,1505.2,329.1,-0.7,1.8,2469.307,13.28,0.073,93.9
2021-05-02T08:58:03,42.805,6.029,0.031,-0.022,0.037,103.0,106.0,100.0,13.4,1505.2,324.0,-0.7,1.9,2469.305,13.28,0.038,125.4
2021-05-02T09:04:03,42.805,6.029,0.044,-0.012,0.024,104.0,105.0,102.0,13.3,1505.2,324.2,-0.8,1.8,2469.316,13.28,0.045,105.3
2021-05-02T09:07:03,42.805,6.029,0.038,0.009,-0.012,105.0,105.0,102.0,13.4,1505.2,327.3,-0.8,1.8,2469.31,13.28,0.039,76.7
2021-05-02T09:10:03,42.805,6.029,0.061,-0.029,0.017,103.0,106.0,102.0,13.4,1505.2,325.6,-0.8,1.8,2469.315,13.28,0.067,115.4
2021-05-02T09:13:03,42.805,6.029,0.033,-0.003,0.015,104.0,106.0,101.0,13.4,1505.2,328.6,-0.8,1.8,2469.301,13.28,0.033,95.2
2021-05-02T09:16:03,42.805,6.029,0.032,-0.007,0.013,105.0,106.0,101.0,13.4,1505.2,326.3,-0.7,1.8,2469.322,13.28,0.032,102.3
2021-05-02T09:19:03,42.805,6.029,0.034,-0.002,-0.021,104.0,106.0,102.0,13.4,1505.2,325.4,-0.8,1.8,2469.325,13.28,0.034,93.4
2021-05-02T09:22:03,42.805,6.029,0.029,-0.018,0.014,104.0,105.0,102.0,13.4,1505.2,325.6,-0.8,1.8,2469.309,13.28,0.034,121.8
2021-05-02T09:25:03,42.805,6.029,0.049,-0.011,-0.028,105.0,105.0,101.0,13.4,1505.2,328.1,-0.8,1.8,2469.282,13.28,0.05,102.7
2021-05-02T09:28:03,42.805,6.029,0.035,-0.011,0.026,104.0,106.0,102.0,13.4,1505.2,327.2,-0.7,1.8,2469.281,13.28,0.036,107.4
2021-05-02T09:31:03,42.805,6.029,0.02,-0.012,-0.003,104.0,105.0,101.0,13.4,1505.2,327.6,-0.8,1.8,2469.325,13.28,0.023,121.0
2021-05-02T09:34:03,42.805,6.029,0.027,-0.021,0.01,105.0,104.0,102.0,13.4,1505.2,329.4,-0.8,1.8,2469.335,13.28,0.034,127.9
2021-05-02T09:37:03,42.805,6.029,0.041,-0.011,0.023,105.0,106.0,102.0,13.4,1505.2,327.1,-0.8,1.8,2469.344,13.28,0.042,105.0
2021-05-02T09:40:03,42.805,6.029,0.052,-0.01,0.027,104.0,107.0,102.0,13.3,1505.2,329.1,-0.7,1.8,2469.344,13.28,0.052,100.9
2021-05-02T09:43:03,42.805,6.029,0.032,-0.022,-0.021,104.0,106.0,102.0,13.4,1505.2,327.6,-0.8,1.8,2469.306,13.28,0.038,124.5
2021-05-02T09:46:03,42.805,6.029,0.028,0.0,0.045,104.0,105.0,103.0,13.4,1505.2,326.0,-0.8,1.9,2469.351,13.28,0.028,90.0
2021-05-02T09:49:03,42.805,6.029,0.048,-0.025,-0.024,104.0,105.0,102.0,13.4,1505.2,327.6,-0.7,1.8,2469.296,13.28,0.054,117.5
2021-05-02T09:52:03,42.805,6.029,0.049,0.004,0.033,105.0,106.0,102.0,13.3,1505.2,328.0,-0.7,1.9,2469.358,13.28,0.049,85.3
2021-05-02T09:55:03,42.805,6.029,0.061,-0.023,0.014,104.0,106.0,102.0,13.3,1505.2,327.9,-0.8,1.8,2469.334,13.28,0.065,110.7
2021-05-02T09:58:03,42.805,6.029,0.036,-0.004,0.005,104.0,106.0,102.0,13.3,1505.2,324.5,-0.7,1.8,2469.342,13.28,0.036,96.3